APL New Jersey — A8NM6 — position and weather

sailwx.info

Track history (hours):
 
Tides and Currents Weather Stations Pressure Air Temp Water Temp Dewpoint Dewpoint Depression Visibility Wind Speed Wind Dir Waves Ship Positions

APL New Jersey

Last reported at 2014-Oct-30 22:08 UTC. Time now 2014-Nov-01 13:25 UTC.
Position N 24°31' E 120°20'.

Length 293 m; draft 13.4 m.

Type: Cargo ship. MMSI: 636013522.

Date/timePositionNaut miles runAvg speedWind from/ knotsBaromVisibWave heightAir tempDewpointWater temp
2014-Oct-30 22:08N 24°31' E 120°20'1220.0
2014-Oct-30 21:32N 24°22' E 120°12'2220.1
2014-Oct-30 20:27N 24°04' E 119°58'1920.7
2014-Oct-30 19:30N 23°46' E 119°50'6420.9
2014-Oct-30 16:27N 22°42' E 119°58'1617.9
2014-Oct-30 15:33N 22°33' E 120°11'7 7.1
2014-Oct-30 14:33N 22°34' E 120°19'0 0.0
2014-Oct-30 13:20N 22°34' E 120°19'0 0.0
2014-Oct-30 10:14N 22°34' E 120°19'0 0.0
2014-Oct-30 09:32N 22°34' E 120°19'0 0.0
2014-Oct-30 08:32N 22°34' E 120°19'0 0.0
2014-Oct-30 07:32N 22°34' E 120°19'0 0.0
2014-Oct-30 05:17N 22°34' E 120°19'0 0.0
2014-Oct-30 04:29N 22°34' E 120°19'0 0.0
2014-Oct-30 03:23N 22°34' E 120°19'0 0.0
2014-Oct-30 02:29N 22°34' E 120°19'0 0.0
2014-Oct-30 01:29N 22°34' E 120°19'0 0.0
2014-Oct-30 00:29N 22°34' E 120°19'0 0.0
2014-Oct-29 23:11N 22°34' E 120°19'0 0.0
2014-Oct-29 22:32N 22°34' E 120°19'0 0.3
2014-Oct-29 21:29N 22°33' E 120°19'7 7.9
2014-Oct-29 20:33N 22°32' E 120°11'1715.1
2014-Oct-29 19:28N 22°30' E 119°54'19318.6
2014-Oct-29 09:05N 22°19' E 116°26'1219.3
2014-Oct-29 08:27N 22°18' E 116°12'11417.9
2014-Oct-29 02:04N 22°13' E 114°09'510.6
2014-Oct-29 01:33N 22°18' E 114°06'1111.4
2014-Oct-29 00:33N 22°22' E 113°54'6 5.8
2014-Oct-28 23:33N 22°28' E 113°53'0 0.1
2014-Oct-28 22:32N 22°28' E 113°53'0 0.0
2014-Oct-28 21:32N 22°28' E 113°53'0 0.0
2014-Oct-28 20:32N 22°28' E 113°53'0 0.0
2014-Oct-28 19:32N 22°28' E 113°53'0 0.0
2014-Oct-28 18:20N 22°28' E 113°53'0 0.0
2014-Oct-28 17:32N 22°28' E 113°53'0 0.0
2014-Oct-28 16:32N 22°28' E 113°53'0 0.0
2014-Oct-28 15:26N 22°28' E 113°53'0 0.0
2014-Oct-28 14:26N 22°28' E 113°53'0 0.0
2014-Oct-28 13:32N 22°28' E 113°53'0 0.0
2014-Oct-28 12:32N 22°28' E 113°53'0 0.0
2014-Oct-28 11:32N 22°28' E 113°53'0 0.0
2014-Oct-28 10:26N 22°28' E 113°53'0 0.0
2014-Oct-28 09:32N 22°28' E 113°53'0 0.0
2014-Oct-28 08:32N 22°28' E 113°53'0 0.0
2014-Oct-28 07:33N 22°28' E 113°53'4 3.7
2014-Oct-28 06:33N 22°24' E 113°54'1110.2
2014-Oct-28 05:28N 22°20' E 114°05'11 8.3
2014-Oct-28 04:08N 22°11' E 114°12'  
2014-Oct-25 00:19N 01°16' E 104°09'1417.1
2014-Oct-24 23:32N 01°14' E 103°56'6 6.3
2014-Oct-24 22:31N 01°16' E 103°50'0 0.0
2014-Oct-24 21:31N 01°16' E 103°50'0 0.1
2014-Oct-24 20:31N 01°16' E 103°50'0 0.1
2014-Oct-24 19:31N 01°16' E 103°50'0 0.0
2014-Oct-24 18:31N 01°16' E 103°50'0 0.0
2014-Oct-24 17:31N 01°16' E 103°50'0 0.0
2014-Oct-24 16:31N 01°16' E 103°50'0 0.0
2014-Oct-24 15:31N 01°16' E 103°50'0 0.1
2014-Oct-24 14:31N 01°16' E 103°50'0 0.0
2014-Oct-24 13:31N 01°16' E 103°50'0 0.0
2014-Oct-24 12:31N 01°16' E 103°50'0 0.1
2014-Oct-24 11:31N 01°16' E 103°50'0 0.1
2014-Oct-24 10:31N 01°16' E 103°50'0 0.1
2014-Oct-24 09:31N 01°16' E 103°50'0 0.1
2014-Oct-24 08:31N 01°16' E 103°50'0 0.0
2014-Oct-24 07:31N 01°16' E 103°50'0 0.0
2014-Oct-24 06:29N 01°16' E 103°50'0 0.1
2014-Oct-24 05:26N 01°16' E 103°50'0 0.0
2014-Oct-24 04:29N 01°16' E 103°50'0 0.0
2014-Oct-24 03:29N 01°16' E 103°50'0 0.1
2014-Oct-24 02:29N 01°16' E 103°50'0 0.0
2014-Oct-24 01:29N 01°16' E 103°50'0 0.0
2014-Oct-24 00:23N 01°16' E 103°50'0 0.1
2014-Oct-23 23:29N 01°16' E 103°50'0 0.0
2014-Oct-23 22:29N 01°16' E 103°50'0 0.1
2014-Oct-23 21:29N 01°16' E 103°50'0 0.0
2014-Oct-23 20:29N 01°16' E 103°50'0 0.0
2014-Oct-23 19:29N 01°16' E 103°50'0 0.0
2014-Oct-23 18:29N 01°16' E 103°50'0 0.1
2014-Oct-23 17:23N 01°16' E 103°50'0 0.1
2014-Oct-23 16:29N 01°16' E 103°50'0 0.0
2014-Oct-23 15:29N 01°16' E 103°50'0 0.0
2014-Oct-23 14:32N 01°16' E 103°50'0 0.0
2014-Oct-23 13:05N 01°16' E 103°50'0 0.0
2014-Oct-23 12:29N 01°16' E 103°50'0 0.1
2014-Oct-23 11:29N 01°16' E 103°50'1 1.0
2014-Oct-23 10:34N 01°16' E 103°51'4 3.8
2014-Oct-23 09:33N 01°14' E 103°54'1514.7
2014-Oct-23 08:32N 01°17' E 104°09'  
Track history (hours):
 
Tides and Currents Weather Stations Pressure Air Temp Water Temp Dewpoint Dewpoint Depression Visibility Wind Speed Wind Dir Waves Ship Positions

APL New Jersey

Last reported at 2014-Oct-30 22:08 UTC. Time now 2014-Nov-01 13:25 UTC.
Position N 24°31' E 120°20'.

Length 293 m; draft 13.4 m.

Type: Cargo ship. MMSI: 636013522.

Date/timePositionNaut miles runAvg speedWind from/ knotsBaromVisibWave heightAir tempDewpointWater temp
2014-Oct-30 22:08N 24°31' E 120°20'1220.0
2014-Oct-30 21:32N 24°22' E 120°12'2220.1
2014-Oct-30 20:27N 24°04' E 119°58'1920.7
2014-Oct-30 19:30N 23°46' E 119°50'6420.9
2014-Oct-30 16:27N 22°42' E 119°58'1617.9
2014-Oct-30 15:33N 22°33' E 120°11'7 7.1
2014-Oct-30 14:33N 22°34' E 120°19'0 0.0
2014-Oct-30 13:20N 22°34' E 120°19'0 0.0
2014-Oct-30 10:14N 22°34' E 120°19'0 0.0
2014-Oct-30 09:32N 22°34' E 120°19'0 0.0
2014-Oct-30 08:32N 22°34' E 120°19'0 0.0
2014-Oct-30 07:32N 22°34' E 120°19'0 0.0
2014-Oct-30 05:17N 22°34' E 120°19'0 0.0
2014-Oct-30 04:29N 22°34' E 120°19'0 0.0
2014-Oct-30 03:23N 22°34' E 120°19'0 0.0
2014-Oct-30 02:29N 22°34' E 120°19'0 0.0
2014-Oct-30 01:29N 22°34' E 120°19'0 0.0
2014-Oct-30 00:29N 22°34' E 120°19'0 0.0
2014-Oct-29 23:11N 22°34' E 120°19'0 0.0
2014-Oct-29 22:32N 22°34' E 120°19'0 0.3
2014-Oct-29 21:29N 22°33' E 120°19'7 7.9
2014-Oct-29 20:33N 22°32' E 120°11'1715.1
2014-Oct-29 19:28N 22°30' E 119°54'19318.6
2014-Oct-29 09:05N 22°19' E 116°26'1219.3
2014-Oct-29 08:27N 22°18' E 116°12'11417.9
2014-Oct-29 02:04N 22°13' E 114°09'510.6
2014-Oct-29 01:33N 22°18' E 114°06'1111.4
2014-Oct-29 00:33N 22°22' E 113°54'6 5.8
2014-Oct-28 23:33N 22°28' E 113°53'0 0.1
2014-Oct-28 22:32N 22°28' E 113°53'0 0.0
2014-Oct-28 21:32N 22°28' E 113°53'0 0.0
2014-Oct-28 20:32N 22°28' E 113°53'0 0.0
2014-Oct-28 19:32N 22°28' E 113°53'0 0.0
2014-Oct-28 18:20N 22°28' E 113°53'0 0.0
2014-Oct-28 17:32N 22°28' E 113°53'0 0.0
2014-Oct-28 16:32N 22°28' E 113°53'0 0.0
2014-Oct-28 15:26N 22°28' E 113°53'0 0.0
2014-Oct-28 14:26N 22°28' E 113°53'0 0.0
2014-Oct-28 13:32N 22°28' E 113°53'0 0.0
2014-Oct-28 12:32N 22°28' E 113°53'0 0.0
2014-Oct-28 11:32N 22°28' E 113°53'0 0.0
2014-Oct-28 10:26N 22°28' E 113°53'0 0.0
2014-Oct-28 09:32N 22°28' E 113°53'0 0.0
2014-Oct-28 08:32N 22°28' E 113°53'0 0.0
2014-Oct-28 07:33N 22°28' E 113°53'4 3.7
2014-Oct-28 06:33N 22°24' E 113°54'1110.2
2014-Oct-28 05:28N 22°20' E 114°05'11 8.3
2014-Oct-28 04:08N 22°11' E 114°12'  
2014-Oct-25 00:19N 01°16' E 104°09'1417.1
2014-Oct-24 23:32N 01°14' E 103°56'6 6.3
2014-Oct-24 22:31N 01°16' E 103°50'0 0.0
2014-Oct-24 21:31N 01°16' E 103°50'0 0.1
2014-Oct-24 20:31N 01°16' E 103°50'0 0.1
2014-Oct-24 19:31N 01°16' E 103°50'0 0.0
2014-Oct-24 18:31N 01°16' E 103°50'0 0.0
2014-Oct-24 17:31N 01°16' E 103°50'0 0.0
2014-Oct-24 16:31N 01°16' E 103°50'0 0.0
2014-Oct-24 15:31N 01°16' E 103°50'0 0.1
2014-Oct-24 14:31N 01°16' E 103°50'0 0.0
2014-Oct-24 13:31N 01°16' E 103°50'0 0.0
2014-Oct-24 12:31N 01°16' E 103°50'0 0.1
2014-Oct-24 11:31N 01°16' E 103°50'0 0.1
2014-Oct-24 10:31N 01°16' E 103°50'0 0.1
2014-Oct-24 09:31N 01°16' E 103°50'0 0.1
2014-Oct-24 08:31N 01°16' E 103°50'0 0.0
2014-Oct-24 07:31N 01°16' E 103°50'0 0.0
2014-Oct-24 06:29N 01°16' E 103°50'0 0.1
2014-Oct-24 05:26N 01°16' E 103°50'0 0.0
2014-Oct-24 04:29N 01°16' E 103°50'0 0.0
2014-Oct-24 03:29N 01°16' E 103°50'0 0.1
2014-Oct-24 02:29N 01°16' E 103°50'0 0.0
2014-Oct-24 01:29N 01°16' E 103°50'0 0.0
2014-Oct-24 00:23N 01°16' E 103°50'0 0.1
2014-Oct-23 23:29N 01°16' E 103°50'0 0.0
2014-Oct-23 22:29N 01°16' E 103°50'0 0.1
2014-Oct-23 21:29N 01°16' E 103°50'0 0.0
2014-Oct-23 20:29N 01°16' E 103°50'0 0.0
2014-Oct-23 19:29N 01°16' E 103°50'0 0.0
2014-Oct-23 18:29N 01°16' E 103°50'0 0.1
2014-Oct-23 17:23N 01°16' E 103°50'0 0.1
2014-Oct-23 16:29N 01°16' E 103°50'0 0.0
2014-Oct-23 15:29N 01°16' E 103°50'0 0.0
2014-Oct-23 14:32N 01°16' E 103°50'0 0.0
2014-Oct-23 13:05N 01°16' E 103°50'0 0.0
2014-Oct-23 12:29N 01°16' E 103°50'0 0.1
2014-Oct-23 11:29N 01°16' E 103°50'1 1.0
2014-Oct-23 10:34N 01°16' E 103°51'4 3.8
2014-Oct-23 09:33N 01°14' E 103°54'1514.7
2014-Oct-23 08:32N 01°17' E 104°09'  

Dump ship's entire track history